Regional Weather Roundup
Issued by NWS

Home | Current Version | Previous Version | Text Only | Print | Product List | Glossary Off
Versions: 1 2 3 4 5 6 7 8 9 10 11 12 13 14 15 16 17 18 19 20 21 22 23 24 25 26 27 28 29 30 31 32 33 34 35 36 37 38 39 40 41 42 43 44 45 46 47 48 49 50

000
ASUS43 KOAX 191010
RWRNE

WEATHER ROUNDUP FOR NEBRASKA
NATIONAL WEATHER SERVICE OMAHA NE
500 AM CDT SAT APR 19 2014

NOTES: SATELLITE DATA IS BEING USED TO AUGMENT CLOUD COVER ABOVE
       12000 FEET.
       "FAIR" INDICATES FEW OR NO CLOUDS BELOW 12,000 FEET WITH NO
       SIGNIFICANT WEATHER AND/OR OBSTRUCTIONS TO VISIBILITY.

  * THESE STATIONS DO NOT REPORT WEATHER SUCH AS RAIN...SNOW OR FOG.

NEZ001>004-019>022-054>056-191100-
NEBRASKA PANHANDLE

CITY           SKY/WX    TMP DP  RH WIND       PRES   REMARKS
SCOTTSBLUFF    CLOUDY    53  37  54 NW10      29.91R
ALLIANCE       CLOUDY    50  37  61 NE21G32   29.91R
CHADRON        CLOUDY    47  36  65 E8        29.95R
KIMBALL        CLOUDY    52  33  48 NW12      29.90S
SIDNEY         CLOUDY    54  35  48 NW15      29.88R
$$

NEZ057>060-069>072-079>082-191100-
SOUTHWEST NEBRASKA

CITY           SKY/WX    TMP DP  RH WIND       PRES   REMARKS
NORTH PLATTE   CLOUDY    54  43  66 S10G20    29.92R
IMPERIAL       MOCLDY    50  42  74 S3        29.86R
LEXINGTON      MOCLDY    53  46  76 SE9G16    29.91R
MCCOOK         MOCLDY    52  45  77 S12       29.87F
OGALLALA       CLOUDY    49  41  74 SE5       29.85S
$$

NEZ005>010-023>029-035>040-094-191100-
NORTH CENTRAL NEBRASKA

CITY           SKY/WX    TMP DP  RH WIND       PRES   REMARKS
VALENTINE      MOCLDY    53  39  59 N18       29.91R
AINSWORTH      MOCLDY    55  42  62 W7        29.90R
BROKEN BOW     CLOUDY    52  44  74 S18       29.87F
O`NEILL        CLOUDY    57  41  55 SW14G24   29.89R
ORD            CLOUDY    55  42  61 S15G24    29.89S
THEDFORD       CLOUDY    57  42  56 S9G18     29.87F
$$

NEZ041-046>049-061>064-073>077-083>087-191100-
SOUTH CENTRAL NEBRASKA

CITY           SKY/WX    TMP DP  RH WIND       PRES   REMARKS
GRAND ISLAND   MOCLDY    53  41  63 S21G29    29.94F
AURORA         MOCLDY    53  40  61 S16G26    29.96S
HASTINGS       MOCLDY    53  40  61 S15       29.95F
HEBRON         PTCLDY    53  39  59 S15G21    30.02S
HOLDREGE       MOCLDY    53  44  72 S17       29.92S
KEARNEY *      MOCLDY    54  43  66 S17G25    29.93F
YORK           PTCLDY    54  39  58 S18G25    29.98F
$$

NEZ011>018-030>034-042>045-191100-
NORTHEAST NEBRASKA

CITY           SKY/WX    TMP DP  RH WIND       PRES   REMARKS
NORFOLK        MOCLDY    55  39  54 S18G25    29.95F
ALBION         MOCLDY    53  40  60 S14       29.94R
BLAIR          CLEAR     55  40  57 S20G25    30.03R
COLUMBUS *     MOCLDY    54  37  54 S15       29.98S
FREMONT        PTCLDY    54  41  61 S18       30.01R
TEKAMAH        PTCLDY    53  40  61 S9        30.03R
$$

NEZ050>053-065>068-078-088>093-191100-
SOUTHEAST NEBRASKA

CITY           SKY/WX    TMP DP  RH WIND       PRES   REMARKS
LINCOLN        PTCLDY    55  39  54 S17       30.02F
OMAHA EPPLEY   PTCLDY    54  41  61 S16       30.04S
BEATRICE       PTCLDY    53  40  60 S13       30.04S
FALLS CITY     CLEAR     52  41  66 S13       30.09F
NEBRASKA CITY  CLEAR     52  41  66 S16       30.06F
PLATTSMOUTH    CLEAR     54  39  58 SE14      30.05S
$$

NEZ044-045-051>053-067-191100-
OMAHA AREA

CITY           SKY/WX    TMP DP  RH WIND       PRES   REMARKS
OMAHA EPPLEY   PTCLDY    54  41  61 S16       30.04S
BLAIR          CLEAR     55  40  57 S20G25    30.03R
FREMONT        PTCLDY    54  41  61 S18       30.01R
MILLARD        CLEAR     55  41  60 S10       30.04R
OFFUTT AFB     CLEAR     55  42  62 SE12      30.05R
PLATTSMOUTH    CLEAR     54  39  58 SE14      30.05S
WAHOO          FAIR      51  40  65 S15       30.01S
$$



USA.gov is the U.S. government's official web portal to all federal, state and local government web resources and services.